Meteo Giornale » Osservazioni meteo Francia » Lille

ore: 11:00 - Osservazioni Meteo Lille
Lat. 50° 34' N Lon. 3° 6' E Alt. 48 metri s.l.m.

sereno Europe/Paris

21 °C

Sereno

Temp. 24 Ore

12 °C

22 °C

Sud/Sud-Est

13 Km/h

Dew point 13 °C

Umidità 60 %

Visibilità  10 Km

Il sole sorge alle ore 05:32

Il sole tramonta alle ore 22:04

Data e Ora Cielo e Fenomeni T °C DP °C Um. % Pres. hPa Vis. km Vento km/h
Oggi h: 11:00 sereno Sereno 21 13 60 1020 10 S/SE 13
Oggi h: 10:30 sereno Sereno 21 13 60 1020 10 S 7.4
Oggi h: 10:00 sereno Sereno 20 14 68 1020 10 N 5.5
Oggi h: 09:30 sereno Sereno 19 13 68 1020 10 N 5.5
Oggi h: 09:00 sereno Sereno 18 14 77 1020 10 S/SE 7.4
Oggi h: 08:30 sereno Sereno 16 14 87 1020 10 N 5.5
Oggi h: 08:00 sereno Sereno 15 13 87 1020 10 N 5.5
Oggi h: 07:30 sereno Sereno 14 13 93 1020 10 N 5.5
Oggi h: 07:00 sereno Sereno 13 13 100 1020 10 N 3.7
Oggi h: 06:30 foschia Foschia 12 12 100 1020 5 N 5.5
Oggi h: 06:00 nebbia Banco di Nebbia 12 12 100 1019 0.35 N 3.7
Oggi h: 05:30 nebbia Banco di Nebbia 12 12 100 1019 0.75 N 3.7
Oggi h: 05:00 sereno Sereno 12 11 93 1020 2 N 3.7
Oggi h: 04:30 sereno Sereno 13 12 93 1020 2 N 3.7
Oggi h: 04:00 sereno Sereno 13 12 93 1020 10 N 3.7
Oggi h: 03:30 poco_nuvoloso Poco Nuvoloso 13 12 93 1020 10 N 1.8
Oggi h: 03:00 sereno Sereno 13 12 93 1020 10 N 1.8
Oggi h: 02:30 sereno Sereno 13 12 93 1020 10 N 3.7
Oggi h: 02:00 sereno Sereno 13 13 100 1020 10 N 3.7
Oggi h: 01:30 sereno Sereno 14 13 93 1020 2 N 1.8
Oggi h: 01:00 sereno Sereno 14 13 93 1020 3 N 1.8
Oggi h: 00:30 sereno Sereno 14 13 93 1020 10 N 0
Oggi h: 00:00 sereno Sereno 15 13 87 1021 10 N 0
Ieri h: 23:30 sereno Sereno 15 13 87 1020 10 N 0
Ieri h: 23:00 sereno Sereno 16 13 82 1020 10 N 1.8
Ieri h: 22:30 sereno Sereno 16 14 87 1020 10 N 1.8
Ieri h: 22:00 sereno Sereno 18 14 77 1020 10 N 5.5
Ieri h: 21:30 sereno Sereno 18 14 77 1020 10 N 5.5
Ieri h: 21:00 sereno Sereno 19 14 72 1020 10 SO 7.4
Ieri h: 20:30 sereno Sereno 19 13 68 1020 10 SO 7.4
Ieri h: 20:00 nuvoloso Nuvoloso 20 13 64 1020 10 SO 9.3
Ieri h: 19:30 poco_nuvoloso Poco Nuvoloso 20 12 59 1020 10 SO 11.1
Ieri h: 19:00 sereno Sereno 21 12 56 1020 10 SO 16.7
Ieri h: 18:30 coperto Coperto 20 14 68 1020 10 SO 18.5
Ieri h: 18:00 sereno Sereno 20 13 64 1020 10 SO 14.8
Ieri h: 17:30 molto_nuvoloso Molto Nuvoloso 20 14 68 1020 10 SO 14.8
Ieri h: 17:00 sereno Sereno 21 14 64 1020 10 SO 9.3
Ieri h: 16:30 molto_nuvoloso Molto Nuvoloso 19 16 82 1020 10 SO 14.8
Ieri h: 16:00 molto_nuvoloso Molto Nuvoloso 19 15 77 1020 10 O 16.7
Ieri h: 15:30 coperto_pioggia Pioggia 19 13 68 1020 10 O/SO 11.1
Ieri h: 15:00 molto_nuvoloso Molto Nuvoloso 21 11 52 1020 10 S 18.5
Ieri h: 14:30 molto_nuvoloso Molto Nuvoloso 22 13 56 1019 10 S/SO 18.5
Ieri h: 14:00 coperto Coperto 21 12 56 1020 10 S 20.3
Ieri h: 13:30 molto_nuvoloso Molto Nuvoloso 21 11 52 1020 10 S/SO 18.5
Ieri h: 13:00 molto_nuvoloso Molto Nuvoloso 20 12 59 1020 10 SO 18.5
Ieri h: 12:30 molto_nuvoloso Molto Nuvoloso 20 12 59 1020 10 SO 16.7
Ieri h: 12:00 molto_nuvoloso Molto Nuvoloso 19 11 59 1020 10 SO 16.7